{"data":{"norad_id":53422,"epoch":"2026-05-25T02:33:22.024224Z","epoch_age_seconds":68997,"freshness":"FRESH","line1":"1 53422U 22097AL  26145.10650491  .00003969  00000+0  26728-3 0  9994","line2":"2 53422  53.2134 131.0720 0001096  86.3019 273.8098 15.08842279210188","mean_motion":15.08842279,"eccentricity":0.0001096,"inclination_deg":53.2134,"raan_deg":131.072,"arg_perigee_deg":86.3019,"mean_anomaly_deg":273.8098,"bstar":0.00026728,"rev_number":21018,"period_min":95.437410526061,"perigee_km":538.97822405444,"apogee_km":540.49462190876,"semimajor_km":6917.8734229816,"source":"CELESTRAK","updated_at":"2026-05-25T13:38:17.403789Z"}}